Wind_Speed
6 5 5 4 4 4 4 4 4 4 4 4 4 4 5 5 5 5 5 6 6 7 8 8 9 10 10 10 10 10 11 12 13 14 15 12 9 11 11 10 9 7 6 5 3 3 4 6 7 7 6 6 4 4 4 5 5 3 2 2 3 3 4 5 7 6 3 3 4 5 6 5 6 9 10 10 13 17 18 20 19 19 21 23 25 24 23 20
7 7 6 5 5 5 4 4 4 4 4 4 3 4 4 5 5 5 5 6 6 6 7 8 9 9 10 11 12 12 13 13 15 16 14 11 9 10 11 13 12 10 8 6 5 4 4 6 6 7 7 6 4 4 4 5 7 5 3 2 4 5 6 6 7 6 4 5 7 10 11 6 9 10 8 7 12 14 14 16 17 20 24 25 27 27 27 26
9 8 7 7 6 6 6 5 5 5 5 5 4 4 4 5 5 6 6 6 7 7 8 8 9 10 11 11 12 13 13 16 17 13 7 3 3 6 7 11 14 13 10 7 6 5 5 6 6 7 9 7 5 5 4 5 7 6 4 2 7 8 6 10 12 12 12 12 10 11 10 7 11 12 7 7 11 13 13 14 14 19 26 25 26 28 28 28
10 9 9 8 8 7 7 7 7 7 6 6 6 6 6 6 6 7 7 7 8 8 8 9 10 11 12 12 13 13 14 15 10 4 3 2 7 12 10 7 10 14 13 10 8 8 7 7 8 8 8 7 6 6 6 8 8 5 6 5 6 5 4 14 17 16 18 14 10 10 7 8 15 12 11 9 8 12 15 15 16 20 24 21 21 26 28 29
12 11 10 10 10 9 9 9 9 8 8 8 8 8 8 8 9 9 9 9 9 9 9 10 11 12 13 14 14 14 13 9 2 5 9 10 11 13 9 6 8 11 14 12 11 11 9 9 9 8 7 5 5 4 5 12 11 5 8 13 11 6 4 16 17 13 15 12 10 9 7 11 14 12 16 12 7 16 20 14 17 21 22 20 20 23 26 29
13 13 12 12 11 11 11 11 11 11 10 10 10 10 11 11 12 11 12 12 11 11 11 11 12 12 14 15 15 14 9 3 6 11 13 10 9 9 8 7 6 9 13 13 13 12 11 11 10 9 7 4 6 7 6 13 14 5 8 13 17 15 11 19 18 14 15 13 11 10 11 15 13 14 17 15 19 33 36 27 27 30 28 25 23 24 27 29
14 14 13 13 13 13 13 13 13 13 13 12 12 13 13 13 14 14 14 14 14 14 14 14 14 14 15 16 16 15 9 10 15 14 10 7 8 10 9 8 6 8 11 14 15 14 13 13 13 11 5 3 6 9 8 10 13 8 6 7 15 19 19 25 24 21 20 17 18 16 15 16 13 13 13 18 33 45 43 38 37 36 33 30 28 28 29 30
14 14 14 15 15 15 15 15 15 15 15 15 14 15 15 15 16 16 16 16 16 16 16 16 16 17 16 17 17 13 12 16 15 10 8 8 10 13 12 11 8 8 10 13 15 15 14 14 16 12 5 5 7 7 6 6 7 8 8 8 10 14 19 25 24 23 21 20 22 16 16 22 22 17 15 28 45 47 41 39 38 33 31 30 30 30 30 31
14 14 15 15 16 16 16 17 17 17 17 16 16 17 17 17 18 18 18 18 18 17 18 18 18 19 18 19 18 13 15 17 11 8 10 11 15 17 15 13 11 10 10 12 14 15 16 16 18 14 9 8 7 6 5 4 5 9 12 11 9 12 18 22 22 21 17 19 18 10 15 27 25 14 17 36 43 39 35 32 27 22 22 24 26 29 30 32
15 15 15 16 16 17 18 18 18 18 18 19 19 19 19 19 20 20 20 19 19 19 19 18 19 19 19 21 16 10 16 17 11 13 15 17 20 19 17 15 14 13 12 13 14 17 18 17 14 13 12 9 6 6 5 5 5 6 9 11 13 16 20 21 19 19 13 16 18 11 13 26 21 4 12 36 37 29 29 27 23 19 21 23 23 25 27 30
16 15 15 16 16 17 18 18 19 19 19 20 20 20 21 21 22 22 22 21 21 21 20 20 20 20 20 22 18 15 21 22 19 21 20 21 22 20 19 16 15 14 14 14 14 16 18 17 12 8 7 6 5 5 6 8 7 8 8 11 15 13 20 22 18 18 12 11 18 15 12 19 12 2 17 39 37 29 28 29 30 27 28 28 26 26 27 30
16 16 16 16 16 17 17 18 19 19 19 20 20 20 20 21 23 23 23 23 23 22 21 20 19 20 20 23 27 26 26 25 23 24 22 22 23 22 21 18 18 16 15 15 14 15 15 16 15 11 8 5 3 2 4 6 5 9 6 6 13 8 14 22 14 13 10 6 10 9 6 11 5 11 30 40 36 31 28 31 33 33 34 33 31 29 28 30
17 17 17 17 18 18 18 19 19 20 20 20 21 20 20 21 22 23 24 23 23 23 22 20 19 20 17 22 31 30 26 25 25 24 23 24 24 24 23 21 19 17 16 16 15 15 14 15 15 15 14 8 4 3 5 4 5 9 3 1 9 7 9 11 1 2 5 5 5 8 3 9 8 20 37 37 33 30 26 30 34 32 33 32 31 30 29 30
18 18 19 19 20 20 20 20 21 22 22 22 22 22 22 22 22 24 24 23 22 22 22 20 19 18 16 24 32 30 27 27 27 26 24 24 24 25 25 23 20 18 17 16 16 16 14 13 12 13 14 12 10 8 6 6 4 5 3 1 3 3 7 6 4 2 3 6 10 10 5 11 10 22 36 34 29 26 24 30 34 32 32 31 30 31 31 31
18 18 19 19 20 20 21 21 22 22 23 23 23 23 23 23 23 24 24 23 22 22 22 20 19 16 14 23 30 27 26 28 28 27 23 22 23 24 24 21 19 18 17 16 16 16 14 11 10 9 9 12 12 6 4 4 3 2 2 4 2 2 7 11 9 6 9 7 11 11 5 10 11 21 33 28 22 21 22 29 32 32 33 32 32 31 33 36
14 15 16 17 17 18 18 19 20 21 22 22 23 23 23 23 23 23 24 23 22 21 20 18 19 15 9 16 24 24 26 28 27 25 22 22 23 23 22 18 17 17 16 16 15 13 11 9 8 8 7 8 6 1 4 4 5 3 2 5 4 5 4 8 11 9 12 5 6 9 6 6 8 17 27 23 19 19 19 26 31 33 35 35 35 34 35 40
11 11 12 12 13 14 14 15 16 17 18 19 21 21 21 21 21 21 21 21 20 19 16 15 14 12 10 15 21 26 29 28 26 24 24 24 22 22 22 19 16 15 14 13 12 10 9 9 7 5 5 4 2 5 3 3 6 4 2 4 5 7 5 4 9 8 6 5 6 8 8 11 12 16 25 26 24 21 17 25 32 33 35 36 37 39 41 44
8 9 9 9 10 11 12 13 14 15 16 16 18 19 19 19 18 18 17 18 16 12 10 11 8 4 11 18 20 24 25 22 20 20 21 21 21 20 20 18 15 13 10 8 8 9 10 7 4 1 2 3 2 5 3 6 8 7 6 5 4 5 7 7 8 6 3 5 6 4 8 15 15 15 24 33 32 26 22 29 33 34 36 39 41 43 46 49
8 8 8 8 9 10 11 12 13 14 15 15 15 17 17 16 14 13 12 12 11 7 5 10 13 5 7 12 14 17 18 17 16 16 18 18 18 18 17 15 12 12 9 5 5 11 11 4 4 2 3 7 6 7 10 14 14 11 7 6 6 6 7 7 10 10 6 9 8 7 13 16 15 15 19 32 35 29 29 32 33 34 36 40 41 44 48 49
8 8 8 9 9 10 10 12 13 14 15 15 15 14 12 9 7 6 7 11 14 14 13 15 18 18 17 15 16 16 17 18 19 18 19 19 16 15 15 13 10 10 8 5 5 8 9 5 3 6 11 13 11 12 17 17 11 6 4 6 8 7 10 9 11 12 4 5 8 9 16 16 15 15 16 28 31 24 27 30 32 34 34 37 40 45 48 49
10 9 8 9 9 10 10 12 13 13 15 15 15 13 8 7 4 5 9 14 19 21 24 24 24 27 28 26 23 21 18 18 21 21 19 18 14 11 13 12 8 5 5 5 4 2 6 7 8 14 16 13 10 12 13 10 6 6 5 7 8 7 13 12 12 15 3 2 8 8 15 19 16 15 15 22 21 17 24 27 30 35 34 35 38 45 49 50
10 10 10 9 10 10 10 12 13 13 14 14 14 13 10 9 7 8 10 12 20 23 25 28 29 33 34 33 32 29 20 15 18 20 17 15 15 12 10 11 6 4 4 5 3 1 4 6 11 18 13 5 5 5 5 6 7 7 5 6 7 5 10 12 11 13 3 2 8 7 14 18 14 15 15 16 18 21 30 32 35 38 35 36 39 45 50 50
11 11 11 11 11 12 11 12 13 13 13 12 12 14 12 12 11 11 10 8 16 21 24 29 32 35 36 35 36 33 25 18 17 19 18 17 17 13 11 9 4 2 4 6 7 6 5 6 14 19 9 4 7 4 4 4 5 6 6 6 8 5 6 9 6 6 3 3 7 9 14 15 11 14 14 19 27 27 32 37 40 43 41 43 47 48 48 49
13 13 13 12 12 13 13 13 13 12 13 12 11 13 13 12 11 12 11 6 8 13 21 27 27 29 32 30 28 27 25 21 17 14 17 20 17 10 9 8 5 3 6 11 13 11 9 7 10 12 8 8 10 7 5 5 6 8 9 7 10 10 11 11 5 6 5 4 6 8 14 13 8 12 11 15 23 23 27 32 35 42 48 50 51 49 48 51
15 14 15 14 14 14 15 14 11 10 13 11 11 13 13 12 11 12 10 5 5 7 12 16 15 17 21 20 17 15 14 16 18 15 14 19 20 10 5 9 7 5 9 11 10 11 10 9 7 6 6 9 9 8 7 7 9 9 8 12 17 16 13 12 8 7 5 4 5 3 8 11 5 11 10 9 9 11 16 19 24 39 47 42 41 45 47 49
17 16 15 16 15 15 16 13 10 11 13 11 11 13 13 11 11 11 7 2 4 4 4 5 5 5 7 8 9 8 3 7 14 18 17 17 22 15 4 6 6 5 8 7 4 5 6 8 9 8 8 9 7 7 8 10 9 9 6 13 17 13 9 11 8 4 2 4 4 2 1 10 7 7 10 8 6 10 12 11 18 32 37 30 32 43 46 45
18 18 17 17 17 16 15 13 12 13 12 10 10 11 11 9 9 10 6 3 5 3 4 4 4 2 1 4 10 11 3 4 2 10 18 17 20 17 7 4 4 3 5 3 3 4 3 4 6 7 7 6 6 8 8 11 8 7 5 9 11 9 8 8 5 4 4 3 4 1 5 6 13 6 8 10 10 10 12 13 16 23 28 29 33 41 43 42
19 19 17 17 18 18 17 16 16 15 12 10 10 9 9 7 8 8 4 3 5 2 3 3 4 1 1 8 15 10 0 1 2 3 11 14 16 12 7 6 6 4 4 5 5 4 4 5 7 8 5 5 8 8 7 12 8 6 2 5 7 6 5 4 5 5 2 4 4 4 4 2 12 8 3 5 8 9 13 16 15 16 22 30 35 38 38 35
20 20 18 18 18 19 20 19 17 15 12 9 8 8 7 6 6 6 3 3 3 2 1 2 4 1 3 9 12 7 2 2 1 3 5 9 13 8 2 5 6 4 4 6 8 6 2 4 6 9 6 6 8 4 7 13 8 3 5 5 4 4 3 5 4 3 2 5 5 5 4 2 11 9 3 3 3 7 12 12 11 12 20 31 34 34 31 27
20 20 19 19 19 19 20 20 17 14 11 9 8 7 5 3 2 2 4 4 2 1 1 2 2 1 4 5 3 4 2 2 1 5 4 5 10 6 0 1 2 3 4 4 7 9 5 2 2 6 7 6 4 2 3 8 5 2 6 5 6 5 4 4 1 3 3 7 6 10 11 5 7 6 4 3 4 6 7 7 8 11 18 30 33 29 26 23
20 20 21 21 21 19 20 20 17 13 12 10 8 5 2 1 2 3 7 2 2 2 1 1 1 2 4 3 1 2 1 3 1 6 3 3 4 3 1 0 0 2 3 4 6 8 5 3 2 5 8 5 6 4 2 2 3 3 3 3 3 4 4 5 4 4 2 8 5 11 12 8 8 6 2 5 6 4 6 6 8 9 14 24 28 25 22 22
21 21 21 22 23 22 21 20 17 13 11 9 7 4 0 2 1 7 5 5 2 2 1 0 1 3 3 2 1 3 1 2 2 5 3 2 3 3 3 5 4 0 4 4 4 5 3 6 4 3 6 8 6 2 2 4 3 5 3 3 0 4 3 3 3 1 3 8 4 7 7 5 12 9 3 8 11 9 9 9 11 10 13 21 24 24 23 22
21 22 23 23 24 25 24 21 18 15 11 9 8 2 3 1 5 5 2 1 2 1 2 1 1 3 3 1 3 3 1 2 3 3 2 2 2 4 5 5 5 2 5 3 2 4 4 5 2 3 4 10 10 5 3 2 4 7 5 6 4 2 2 4 4 2 5 7 2 3 4 4 10 7 7 12 13 11 9 12 19 19 18 23 25 27 28 25
21 21 23 24 25 26 24 22 21 18 14 11 7 2 3 6 7 1 3 5 4 3 2 2 2 2 2 2 4 3 2 3 3 3 1 2 1 4 4 5 5 3 2 2 2 2 4 7 4 6 3 9 13 10 9 5 5 7 6 6 5 5 5 4 4 5 7 5 2 1 4 4 5 3 6 10 9 11 11 14 18 19 21 23 25 28 29 28
22 21 22 23 25 26 24 23 21 18 14 11 7 3 5 8 6 1 4 5 2 4 4 1 3 1 3 4 3 3 5 4 2 4 2 2 2 3 3 5 6 5 3 3 2 3 4 9 7 3 2 10 10 9 8 7 2 4 4 4 4 6 6 4 6 7 4 3 3 2 4 5 4 6 8 8 8 11 14 14 12 16 19 19 22 26 28 28
23 22 22 23 24 24 23 23 20 18 17 12 5 5 9 7 3 3 3 2 2 2 2 4 1 2 4 3 2 2 3 3 0 1 2 2 2 4 4 4 6 8 7 5 2 1 3 7 4 2 2 4 2 3 3 4 2 2 3 3 4 4 6 5 7 2 1 5 6 5 7 6 4 10 8 3 5 8 10 10 10 15 18 15 16 20 22 24
24 22 23 26 24 20 19 19 18 21 20 13 4 7 7 4 5 6 3 3 3 3 3 3 3 3 3 2 2 2 1 1 1 1 1 2 2 3 4 3 4 9 10 4 1 2 2 6 4 2 1 4 3 3 2 1 3 5 4 5 1 3 2 2 2 1 2 9 6 7 14 10 4 8 6 6 7 7 6 6 6 8 11 12 13 16 19 23
23 22 25 27 24 20 18 15 17 23 19 9 8 11 5 3 6 6 5 4 2 2 4 5 4 3 4 4 3 3 3 2 2 3 1 2 3 4 4 3 3 7 10 6 1 1 1 4 6 1 2 4 3 2 3 4 3 5 3 3 2 1 2 1 2 3 7 10 6 7 15 12 7 9 8 7 9 9 6 5 6 6 7 11 17 21 25 29
21 18 19 19 17 18 18 16 20 25 15 5 10 10 4 4 6 7 9 6 2 2 3 5 5 3 4 5 4 3 4 4 4 3 3 3 4 4 4 2 3 4 5 6 5 2 2 1 7 2 1 2 4 1 2 2 2 1 1 3 1 3 3 3 3 2 5 10 8 8 10 9 7 7 6 7 9 8 5 3 5 6 7 13 20 26 32 35
16 9 10 9 7 11 16 19 22 21 9 4 10 7 2 3 5 10 15 11 4 4 4 4 5 5 5 5 6 4 4 4 5 4 3 4 4 3 3 3 4 3 1 4 4 2 2 2 6 4 3 3 2 2 5 4 2 1 2 3 3 2 1 2 2 1 3 7 7 7 8 6 5 5 6 7 7 6 6 3 5 8 13 22 29 34 39 42
10 5 7 8 7 10 18 19 15 11 5 5 9 7 4 5 4 8 15 15 10 8 6 4 5 6 5 5 5 3 2 3 5 5 4 4 5 5 5 6 7 5 3 3 2 3 1 2 2 2 4 6 7 6 6 6 5 4 4 4 5 5 4 5 6 4 3 5 6 8 9 6 4 8 8 6 5 6 6 4 6 11 20 29 35 40 42 41
10 5 5 7 10 15 20 15 8 7 5 6 8 8 7 7 5 5 11 14 11 7 6 4 5 5 5 6 6 4 3 4 5 6 5 6 8 7 6 9 11 7 4 1 4 4 3 3 3 5 7 10 15 11 7 8 6 5 5 5 6 6 5 7 9 7 5 6 6 8 10 6 4 10 12 7 5 6 8 8 7 13 22 27 32 37 38 39
10 9 7 7 11 19 18 8 6 7 4 6 8 8 7 6 4 4 7 9 7 5 5 4 5 7 6 6 7 5 4 5 6 7 6 5 8 12 14 14 11 5 2 2 4 3 4 3 3 8 6 7 13 14 9 7 6 5 6 8 10 10 11 11 8 5 6 8 7 8 10 5 5 8 12 12 12 14 15 14 11 12 21 26 30 34 37 39
7 13 14 10 12 19 15 5 6 8 5 6 6 6 8 7 6 7 6 5 6 5 3 4 5 7 7 6 7 7 6 6 7 8 8 4 5 14 22 22 15 6 4 6 4 4 3 2 4 6 6 6 7 9 8 4 4 5 7 10 12 14 15 11 5 3 6 10 11 11 10 6 4 6 8 13 18 18 19 23 21 18 23 29 30 30 33 35
4 9 15 14 16 20 16 9 8 6 6 9 9 8 9 6 8 15 12 7 9 7 3 4 4 4 5 4 4 6 6 7 7 6 6 4 3 6 12 18 18 11 10 11 7 4 4 5 5 5 8 10 10 8 5 2 3 3 5 9 12 14 15 11 6 6 8 10 11 12 11 8 7 7 9 14 19 20 22 29 32 26 22 28 30 27 28 30
2 3 6 9 15 20 21 20 15 6 4 8 8 8 11 10 9 13 13 9 12 12 6 5 4 2 3 3 5 7 7 8 8 5 5 4 3 1 7 10 9 8 10 11 6 1 1 4 8 11 12 12 13 12 6 2 3 3 4 8 10 10 13 10 7 9 9 9 11 12 12 13 12 11 14 18 19 22 23 26 30 27 21 25 26 19 16 18
1 2 2 2 7 12 16 19 15 7 4 6 4 3 10 12 7 7 9 8 11 13 8 5 7 6 5 5 7 8 8 9 9 9 9 6 2 4 12 11 7 8 8 7 6 1 2 4 10 16 17 16 16 17 15 13 13 11 10 11 10 9 9 9 10 12 11 11 13 11 13 17 14 12 16 19 19 20 20 22 27 28 21 17 16 18 18 19
3 3 3 1 2 4 6 8 7 5 6 7 5 5 9 11 7 5 5 3 5 9 6 4 7 11 11 10 8 6 6 8 8 5 4 2 3 5 9 5 4 11 10 7 6 1 3 4 8 13 17 17 17 19 20 19 17 15 14 13 14 15 15 15 18 18 15 14 15 14 16 20 15 12 16 19 19 21 20 22 24 24 25 25 25 25 26 28
5 5 6 5 4 4 6 7 8 5 5 6 4 7 11 13 13 9 3 1 2 5 8 8 6 4 5 5 5 4 4 6 5 1 2 3 2 3 4 3 1 9 10 7 6 2 3 3 5 10 14 14 16 18 19 18 16 15 14 15 17 19 21 23 23 21 19 19 19 18 22 22 17 15 16 14 14 16 17 21 24 26 28 27 27 27 28 30
5 4 6 7 6 8 9 9 7 5 4 5 4 6 8 10 12 9 3 3 3 3 6 7 2 2 2 2 1 3 2 1 2 1 2 3 2 1 1 3 3 6 7 4 2 3 4 3 5 7 8 10 12 13 14 15 15 16 16 17 18 20 23 23 22 18 18 20 20 21 23 18 11 11 10 13 20 22 21 21 22 24 25 25 26 27 28 29
10 7 7 7 5 6 6 4 4 4 3 4 4 4 5 7 7 4 1 3 2 0 1 2 2 2 2 2 2 3 2 2 1 3 2 2 3 4 2 2 4 6 7 4 2 2 3 3 6 7 7 8 9 10 11 11 14 16 17 18 20 20 19 17 16 16 16 18 20 20 15 8 8 11 10 14 19 17 15 15 18 22 25 25 25 25 27 28
11 10 8 5 4 6 4 2 2 4 4 2 1 3 4 3 5 6 3 0 6 9 7 6 3 2 1 1 2 3 3 1 4 7 9 10 13 14 13 13 12 7 5 4 3 3 3 4 5 6 7 8 10 12 11 10 12 13 11 13 18 19 18 15 13 13 10 9 9 7 3 3 7 10 11 13 14 12 12 12 15 21 24 25 26 25 25 27
Wind_Direction
300 303 302 305 308 310 315 323 328 337 347 352 358 2 4 7 11 12 13 13 11 10 6 4 2 358 355 348 342 337 328 317 309 299 292 299 288 262 252 248 250 247 244 247 244 246 212 194 199 204 211 220 233 239 227 220 195 174 106 137 244 205 201 195 192 206 188 264 281 314 294 229 263 276 266 276 265 258 260 253 247 244 246 251 257 259 259 259
291 292 292 294 292 292 296 296 302 309 317 324 336 340 343 348 346 350 352 353 357 357 355 355 353 350 348 344 343 340 335 328 315 301 296 297 286 269 255 247 248 246 245 249 242 234 224 216 212 206 209 218 232 228 213 209 194 180 129 171 234 206 212 210 204 217 215 260 280 298 297 254 255 275 276 274 264 262 262 255 247 248 251 253 256 258 259 258
287 287 288 288 286 285 283 282 285 287 294 300 306 313 318 320 321 327 328 331 335 338 340 340 340 339 337 336 337 337 337 330 319 310 305 296 341 335 298 262 251 246 243 246 233 216 226 232 225 210 208 219 227 220 207 195 198 201 176 226 245 219 238 252 244 247 255 271 289 296 291 262 268 274 259 259 276 272 255 251 243 245 258 262 261 260 259 259
288 288 289 288 287 285 281 280 278 279 283 287 293 298 298 301 302 304 307 312 317 321 325 327 328 329 328 328 331 332 336 331 323 358 14 323 333 334 328 291 255 243 237 235 226 214 221 223 217 209 208 221 222 217 215 202 199 191 178 211 238 198 236 260 256 262 272 279 276 280 292 284 283 275 251 259 294 282 257 253 250 250 266 273 268 264 260 258
289 290 291 290 289 287 286 283 281 280 280 281 286 290 292 294 293 295 298 300 303 307 311 314 317 320 320 321 323 326 340 345 8 33 343 315 318 322 322 298 261 241 230 225 224 218 217 218 213 206 209 225 199 192 228 211 196 179 213 230 237 201 230 266 267 272 279 283 276 276 287 286 290 275 255 246 240 267 272 275 274 272 278 281 275 269 262 256
288 290 291 291 290 289 287 285 284 283 281 283 284 286 289 291 292 294 295 298 300 302 305 307 310 313 313 315 314 317 330 306 290 323 321 314 323 327 327 303 270 245 231 220 224 221 219 220 212 204 204 224 194 193 230 211 197 216 246 237 246 238 239 267 271 272 277 280 277 275 279 283 290 283 268 242 240 267 278 280 280 281 282 280 275 267 260 255
288 290 291 291 290 289 288 286 285 283 283 284 283 285 286 287 290 291 293 296 298 300 303 305 307 309 311 311 308 307 291 274 295 307 304 308 317 321 322 307 284 256 239 227 227 222 223 218 213 211 199 240 219 212 231 214 199 223 261 241 251 248 245 264 271 272 275 275 274 276 282 279 270 279 282 260 264 276 281 281 280 281 282 277 270 263 259 258
287 289 290 290 290 290 289 288 287 286 286 285 284 284 284 285 286 287 289 290 293 296 298 301 304 305 309 308 306 300 281 285 300 298 289 296 308 315 312 300 287 266 252 242 236 229 229 222 219 219 206 237 228 211 218 223 210 216 244 245 251 254 257 269 274 273 272 270 275 277 274 271 266 271 278 272 277 283 284 285 286 285 282 274 267 262 258 258
283 286 287 289 290 290 290 290 290 289 288 287 287 285 284 284 284 285 285 285 287 289 291 295 297 299 302 301 301 295 284 292 299 291 294 296 302 307 301 293 285 273 263 249 239 232 230 228 228 226 235 249 237 228 203 210 235 215 233 254 262 267 274 279 277 273 271 268 270 265 268 274 277 279 273 272 279 288 290 290 292 289 281 273 268 263 259 258
282 283 285 286 287 288 289 290 290 290 290 289 288 287 287 286 286 286 285 284 284 284 286 288 289 292 293 292 291 280 283 291 291 292 296 295 297 298 294 290 283 275 267 254 241 235 233 236 239 234 247 260 245 239 204 197 239 245 259 275 275 278 285 283 277 276 272 269 259 232 257 272 277 283 265 274 278 283 288 290 293 287 281 280 274 268 264 262
281 281 281 282 282 283 284 285 286 287 287 287 286 286 286 286 286 285 284 285 284 283 283 283 285 284 284 284 269 259 281 288 288 291 292 292 292 289 287 283 276 271 263 260 253 248 244 240 245 237 241 255 249 245 227 227 250 287 307 300 285 294 298 285 275 275 263 269 257 223 245 273 278 203 247 271 279 274 277 285 288 285 283 283 278 273 268 267
280 280 280 280 280 281 282 283 283 284 284 284 284 284 284 283 282 282 282 282 282 282 281 280 279 276 278 274 263 266 283 286 285 287 286 288 287 284 283 276 270 264 257 259 257 257 251 242 239 235 239 245 277 299 245 246 280 301 327 315 294 326 309 284 276 270 234 245 257 200 244 280 250 237 253 270 278 271 271 278 284 285 285 286 282 277 272 275
281 281 282 281 282 282 283 284 283 284 284 284 285 284 284 282 281 281 279 278 279 279 279 278 275 273 270 266 270 277 283 281 280 281 281 282 281 280 278 273 266 259 255 255 252 254 251 246 239 238 249 250 258 275 271 309 328 303 323 340 301 336 308 282 314 288 209 219 218 155 255 272 233 251 262 272 275 269 267 271 278 282 283 284 284 282 280 282
283 283 284 284 284 285 285 286 285 285 285 285 285 284 283 282 281 281 280 279 278 277 278 277 275 271 259 263 276 281 279 279 277 276 278 277 276 275 272 268 263 256 254 253 252 254 249 247 241 239 249 247 254 272 296 336 337 298 304 292 308 307 284 302 49 65 267 248 190 162 254 262 254 262 266 273 273 267 263 267 275 277 277 277 278 281 283 284
284 284 285 284 285 286 286 287 287 286 286 286 285 284 283 282 280 279 279 279 277 276 276 275 273 266 255 266 275 278 277 276 275 277 276 271 268 267 265 263 259 253 250 250 251 252 246 238 229 230 244 251 257 275 326 343 346 5 287 284 317 231 272 306 311 226 236 256 177 167 247 260 261 266 269 276 273 264 257 264 272 275 276 275 273 276 280 283
287 287 286 286 286 287 288 289 290 290 290 291 290 290 288 286 283 281 279 276 274 273 271 270 267 257 250 271 272 272 272 271 275 278 271 265 262 258 258 256 252 247 243 244 247 246 237 222 218 226 239 253 242 157 36 348 319 348 220 255 271 255 275 313 303 241 219 235 177 195 238 263 264 266 274 281 277 265 255 263 270 272 275 275 274 274 276 280
296 294 292 293 292 293 295 295 296 296 296 298 297 296 296 295 291 287 280 274 269 264 262 261 258 249 244 262 268 268 269 271 274 273 266 263 259 254 252 246 240 238 235 236 237 228 209 196 198 227 242 246 136 104 56 297 277 293 226 238 246 249 261 289 300 285 221 195 207 230 239 252 260 269 279 282 281 277 260 264 270 271 273 273 274 274 274 276
311 307 304 303 302 303 305 305 307 303 303 307 306 305 305 304 299 293 283 273 263 253 254 237 214 236 251 249 260 269 273 275 272 267 262 258 253 248 241 237 235 226 216 214 214 195 185 184 169 168 295 246 143 120 174 232 238 240 230 245 257 244 249 253 269 290 290 230 216 229 249 253 262 273 280 278 277 278 269 268 270 270 272 272 273 273 274 274
324 322 319 318 316 316 317 318 318 315 313 314 315 314 312 311 305 295 283 264 240 223 243 211 192 205 255 250 262 270 272 270 265 259 253 250 245 237 227 226 221 198 178 168 196 184 171 143 107 131 247 233 205 166 199 224 228 232 228 239 260 256 248 241 250 258 276 278 255 242 257 258 264 268 272 275 275 275 273 271 270 270 270 271 272 272 272 272
331 332 331 329 326 328 330 330 329 327 322 319 323 324 324 328 320 301 284 261 248 248 257 240 226 239 254 262 268 269 267 263 261 255 249 250 243 225 210 200 185 178 173 158 187 186 169 166 159 192 221 224 208 194 212 229 238 251 246 246 252 258 263 250 257 263 246 279 262 240 261 265 263 264 262 270 274 275 275 273 270 269 268 268 270 271 272 272
330 329 329 330 328 330 333 334 334 334 333 330 333 341 353 358 336 303 302 284 274 269 264 261 252 250 257 261 260 260 265 264 260 254 250 248 232 209 195 179 155 174 198 154 138 148 171 196 208 213 224 223 211 210 221 238 260 262 246 261 260 245 263 258 259 270 240 229 260 243 268 270 262 264 262 266 271 265 264 268 270 270 269 268 268 270 272 273
320 319 321 321 319 323 327 334 334 333 338 337 340 353 359 348 325 302 306 289 282 279 270 267 258 252 257 258 254 253 256 263 260 250 244 230 209 199 185 170 169 186 162 130 117 219 210 223 228 226 234 243 241 217 203 228 239 245 241 268 269 245 272 269 250 266 261 194 272 270 268 267 262 262 258 256 257 254 256 260 266 270 271 269 266 268 271 273
303 306 311 311 312 316 318 328 328 329 338 339 343 355 353 341 332 318 312 279 279 281 270 264 256 251 255 255 252 248 243 247 254 250 241 219 195 197 189 163 169 160 137 176 199 217 225 234 234 233 236 243 257 231 158 234 236 221 220 242 262 247 264 267 245 279 294 212 272 288 277 271 259 258 254 246 248 252 256 258 262 265 266 266 265 265 267 270
292 296 300 304 309 311 314 321 321 326 335 338 345 352 350 343 338 329 316 276 272 278 265 261 255 251 253 253 250 244 237 237 244 249 240 217 191 188 198 168 145 152 187 206 214 228 238 236 227 224 215 210 238 240 201 251 257 223 209 216 250 245 239 251 275 338 325 276 280 294 292 284 225 229 249 244 245 249 253 256 260 262 261 262 264 265 264 266
279 284 290 296 300 304 310 314 313 321 330 333 341 347 350 347 342 336 327 297 280 272 259 259 254 250 251 250 246 237 235 238 240 243 238 220 204 191 186 175 172 200 209 211 225 244 251 247 217 185 199 205 217 236 210 213 251 253 211 206 236 246 248 260 292 341 342 308 305 339 306 296 194 192 235 247 243 246 246 247 252 257 259 259 263 266 265 266
270 271 276 282 287 293 301 306 306 316 324 325 333 345 347 345 348 343 344 349 289 266 225 226 229 238 237 237 224 195 205 259 246 235 229 225 215 206 181 174 190 217 200 196 229 252 251 238 213 190 202 198 198 242 221 196 236 272 226 205 227 243 255 261 274 311 282 261 297 75 209 287 281 195 216 233 236 244 245 242 244 251 257 260 262 266 268 270
269 271 272 275 279 282 287 295 299 307 316 316 325 343 343 346 357 350 357 351 287 224 149 180 180 181 212 189 170 153 178 279 262 214 209 210 209 205 209 192 191 222 170 141 274 242 201 216 215 203 196 170 184 241 220 181 206 267 234 194 207 222 235 237 224 223 236 276 297 205 147 272 289 252 192 205 218 241 252 248 247 250 257 263 263 266 271 275
263 267 271 274 278 279 279 282 289 299 304 305 313 329 338 344 351 1 28 310 287 133 118 186 165 172 191 163 171 167 184 305 78 191 198 198 199 198 227 217 183 206 163 149 244 240 155 192 211 189 167 174 206 226 185 159 195 256 178 154 174 189 197 160 160 199 258 339 295 235 143 226 280 277 144 191 219 240 252 246 249 254 259 263 264 267 273 279
255 258 264 269 271 271 272 274 281 291 293 294 298 311 333 335 344 24 86 259 291 86 93 184 165 184 115 149 186 212 346 29 101 161 168 190 197 187 250 228 184 216 219 188 230 257 185 200 197 163 159 211 217 218 161 164 200 223 112 94 81 87 87 101 142 156 66 311 263 201 168 208 278 282 84 88 232 235 249 251 254 260 263 264 265 269 274 278
252 252 256 260 260 259 265 272 280 285 283 279 281 301 331 327 352 42 223 244 326 359 147 160 190 194 118 128 216 257 257 310 91 138 135 159 190 192 145 234 171 197 256 251 247 254 238 147 128 173 197 204 161 90 159 174 187 117 94 53 31 29 32 61 59 84 79 282 244 181 183 182 275 280 136 170 232 217 239 262 269 268 264 264 264 266 272 277
253 250 247 250 256 259 264 269 276 277 268 261 269 290 317 19 68 196 232 269 1 297 103 110 318 64 97 113 264 268 221 274 167 151 158 120 165 193 109 191 82 73 322 294 269 271 246 189 193 204 197 159 106 85 23 60 114 106 87 61 19 332 3 32 352 53 142 262 233 181 182 175 233 259 167 259 273 230 222 238 255 259 261 267 268 266 269 276
254 249 245 245 248 252 257 263 270 271 260 244 245 262 127 55 225 216 245 9 354 259 102 231 295 84 69 42 257 234 167 268 205 153 172 146 155 191 192 198 179 297 297 251 269 308 261 220 211 172 187 176 148 125 351 360 92 121 111 124 162 308 343 353 310 97 205 256 241 177 170 196 244 255 247 266 270 251 229 224 238 243 256 273 278 275 272 274
253 248 246 244 243 244 247 255 264 262 255 235 227 227 92 181 243 209 202 323 245 232 95 155 107 112 126 31 267 229 134 234 195 159 176 138 164 239 249 226 173 207 265 217 310 316 288 275 168 126 232 195 166 160 222 262 167 157 153 158 173 215 243 260 264 271 261 267 279 167 174 250 273 273 234 237 252 263 259 242 242 243 254 272 281 284 285 283
253 250 249 245 244 244 244 251 257 257 252 231 205 124 115 226 246 130 166 225 251 334 36 106 57 50 164 230 249 201 212 250 164 146 188 117 190 257 257 243 198 171 234 225 300 221 253 290 200 169 223 179 176 199 196 149 155 185 162 145 178 189 190 215 226 252 265 273 320 205 186 224 267 281 238 236 264 298 292 265 254 255 261 272 278 281 285 284
254 254 250 246 245 243 242 244 245 247 239 204 166 156 212 233 250 239 217 227 269 306 304 359 78 26 282 259 261 214 216 252 87 108 188 170 202 226 208 225 204 161 147 215 260 163 220 269 240 207 155 154 177 218 181 115 116 219 130 120 224 204 177 215 237 231 243 286 288 225 221 233 243 276 272 262 282 289 281 276 280 282 278 281 284 284 288 293
258 257 253 251 246 242 243 239 235 240 223 184 150 219 225 232 218 197 209 188 180 188 304 313 202 198 277 266 292 294 190 205 33 86 213 215 234 224 216 232 199 184 185 193 228 206 237 272 262 27 35 158 193 281 189 142 207 203 129 185 233 163 154 220 261 251 111 257 248 228 257 274 291 288 290 332 319 290 288 293 289 291 295 300 309 311 314 321
261 261 258 255 248 245 244 233 230 233 212 179 189 229 221 231 199 191 193 165 182 140 125 266 229 180 252 258 270 278 160 178 198 145 220 248 253 205 211 258 194 194 212 207 274 249 251 291 281 119 241 270 320 338 314 6 117 131 176 227 249 65 118 174 257 324 238 248 243 236 258 271 286 280 305 19 342 302 305 314 305 313 317 318 334 339 333 336
263 266 265 260 254 246 236 223 221 218 199 175 233 233 216 226 206 189 179 166 164 109 147 222 232 178 205 236 246 197 176 199 150 150 199 237 239 186 179 246 187 202 228 204 159 298 82 302 295 123 170 288 349 355 305 347 77 138 203 260 99 164 254 154 177 227 236 247 249 230 249 262 253 253 277 302 287 275 283 323 335 339 327 320 331 332 328 331
263 271 273 267 259 243 227 216 210 203 188 181 235 232 214 219 222 205 201 202 178 141 196 227 231 225 208 216 236 215 205 209 170 171 194 200 227 190 156 212 194 226 245 166 169 281 63 249 279 310 106 340 11 77 207 292 341 83 297 321 60 177 201 189 190 196 228 248 255 233 235 249 248 243 256 257 247 247 260 323 325 298 294 313 323 324 324 326
253 262 270 257 248 236 214 203 200 191 184 226 226 226 210 215 238 226 219 222 208 198 230 228 212 231 235 225 235 240 231 212 192 202 210 208 235 225 195 196 175 187 48 108 168 216 77 216 261 303 327 309 302 195 190 204 205 169 257 268 265 229 207 249 236 186 231 253 259 252 242 244 262 266 255 253 245 217 204 230 277 290 310 318 319 318 318 316
223 235 266 235 225 221 194 186 193 191 203 244 231 234 236 231 244 227 221 221 222 226 227 205 204 221 235 244 242 223 207 209 202 207 218 222 232 242 226 192 168 158 99 77 187 184 151 207 219 289 294 278 265 224 178 175 172 174 208 228 240 239 249 273 258 223 222 253 254 261 261 251 272 285 265 234 216 200 202 249 298 311 314 313 311 308 306 305
193 220 259 209 210 207 185 178 200 207 210 228 234 238 230 232 239 219 214 213 216 230 228 218 224 220 224 247 248 218 194 215 208 203 222 225 215 222 220 194 184 175 141 168 225 194 145 127 192 244 245 250 263 254 206 198 212 217 220 223 236 232 219 239 248 239 234 246 246 256 262 242 219 268 272 252 233 246 252 262 282 294 297 299 298 296 297 300
201 230 229 187 205 207 190 186 222 211 220 245 246 241 228 230 241 220 211 209 209 218 223 222 226 228 228 233 237 222 203 213 208 205 226 235 215 218 222 210 196 173 131 259 250 186 124 104 225 251 252 246 262 268 256 230 223 240 236 218 220 226 224 228 237 243 246 246 246 255 257 231 193 251 276 283 286 286 280 271 264 276 288 290 290 292 295 299
234 250 239 214 209 208 198 198 226 217 235 254 252 248 240 238 236 233 219 196 198 198 209 224 221 228 230 219 221 219 209 218 226 223 222 221 221 221 224 225 220 201 189 210 207 182 188 196 215 252 275 267 262 272 274 249 199 225 240 226 225 229 233 240 242 243 250 239 237 252 256 238 227 260 283 290 290 290 287 284 283 286 291 290 288 291 295 296
284 263 246 229 217 218 221 227 235 236 238 243 249 250 249 249 238 240 240 221 209 201 205 243 235 224 225 228 243 236 223 229 245 245 223 227 256 226 231 239 235 225 222 220 206 184 218 223 207 238 260 259 263 262 253 226 193 223 248 235 232 227 226 236 243 237 246 234 226 244 258 251 252 270 282 283 285 288 288 289 289 288 288 290 292 294 294 297
312 276 258 238 224 230 239 242 244 253 238 240 247 238 239 247 248 241 237 228 221 219 231 258 259 265 245 239 258 256 245 239 243 251 249 259 261 322 346 320 281 280 283 273 272 242 228 238 226 236 244 246 259 263 260 288 253 242 256 238 231 226 221 225 233 236 250 255 243 243 254 259 256 260 269 271 275 281 285 288 289 289 290 293 302 316 321 321
288 266 241 253 238 237 244 245 245 242 223 228 236 233 238 245 253 239 225 222 221 220 235 250 227 227 230 228 241 249 246 242 244 249 255 267 271 320 340 345 348 349 337 317 317 255 211 259 237 241 247 247 259 269 273 279 269 259 263 257 254 256 243 236 243 246 253 264 261 251 252 258 254 247 258 266 270 274 277 281 289 302 322 338 359 23 24 14
213 270 254 275 275 244 241 257 271 271 245 239 241 256 254 249 248 235 219 232 223 210 219 250 230 227 233 239 244 250 250 251 256 253 254 317 2 337 336 345 34 30 29 10 354 11 207 263 243 245 255 253 258 265 264 265 266 262 261 260 262 265 262 256 252 251 250 255 263 266 262 262 261 252 251 257 265 270 280 297 313 340 12 32 38 34 26 18
237 277 283 296 297 279 287 304 320 314 270 263 251 236 245 248 247 244 235 308 281 213 216 234 238 228 241 251 241 230 242 250 257 273 67 31 344 323 332 302 12 37 32 3 340 296 235 264 255 257 265 263 261 263 263 265 267 267 264 260 259 260 259 258 258 258 258 259 264 268 265 264 267 271 270 282 305 318 336 354 10 24 31 34 31 25 20 15
253 276 309 318 303 287 289 291 300 311 287 280 263 234 242 248 249 255 241 210 242 252 233 232 239 70 89 79 195 230 238 222 232 238 82 44 355 359 8 294 305 354 353 333 309 275 262 302 321 303 290 280 273 268 267 268 269 270 268 264 263 263 260 261 264 267 268 266 265 265 263 266 287 308 323 5 12 10 13 22 30 31 25 25 24 19 14 9
254 267 302 315 294 278 284 281 283 290 269 247 244 258 268 258 261 289 287 212 220 246 159 134 41 30 125 132 202 204 152 102 174 253 251 225 259 262 242 260 297 321 319 288 238 285 289 296 316 310 288 279 279 272 269 276 277 274 271 268 266 265 263 262 260 259 263 267 269 270 270 285 345 347 356 19 20 15 14 19 25 23 20 20 18 13 9 6
254 264 275 276 267 265 271 324 312 272 258 252 288 319 288 290 11 7 306 265 90 91 80 61 30 356 45 305 247 152 122 321 260 270 272 252 249 250 242 240 242 246 269 281 264 247 250 271 287 287 280 279 279 280 286 296 286 273 268 266 261 261 264 267 266 267 278 292 284 279 300 354 359 360 1 4 7 4 355 5 21 20 15 14 10 6 3 1
Height
1560 1560 1559 1559 1559 1558 1558 1558 1557 1557 1556 1556 1555 1555 1554 1554 1553 1553 1552 1552 1551 1550 1550 1549 1548 1548 1547 1546 1546 1545 1544 1544 1543 1542 1541 1541 1541 1541 1541 1541 1542 1542 1542 1543 1543 1543 1543 1543 1543 1543 1544 1544 1544 1544 1545 1545 1546 1546 1549 1551 1550 1550 1547 1539 1537 1535 1532 1529 1527 1526 1526 1527 1525 1524 1523 1521 1520 1518 1517 1515 1515 1515 1514 1513 1512 1511 1511 1511
1559 1559 1559 1559 1558 1558 1558 1557 1557 1556 1556 1555 1555 1555 1554 1554 1553 1552 1552 1552 1551 1550 1550 1549 1548 1548 1547 1546 1545 1544 1543 1543 1541 1540 1539 1539 1540 1539 1540 1540 1540 1541 1541 1542 1542 1542 1542 1542 1542 1543 1543 1543 1544 1544 1544 1544 1545 1546 1550 1551 1546 1544 1538 1532 1532 1530 1529 1528 1526 1526 1526 1526 1525 1523 1523 1521 1518 1517 1515 1512 1514 1513 1512 1511 1510 1510 1510 1509
1559 1558 1558 1558 1558 1557 1557 1556 1556 1556 1555 1555 1555 1554 1554 1553 1553 1552 1552 1551 1551 1550 1550 1549 1548 1548 1547 1546 1545 1544 1543 1542 1540 1538 1538 1538 1539 1539 1539 1539 1539 1540 1540 1540 1541 1541 1541 1542 1542 1542 1543 1543 1543 1543 1543 1544 1544 1544 1547 1548 1541 1537 1534 1530 1530 1528 1527 1527 1526 1526 1525 1525 1523 1522 1522 1519 1516 1515 1511 1510 1512 1511 1509 1509 1509 1508 1508 1507
1558 1558 1557 1557 1557 1556 1556 1556 1555 1555 1555 1554 1554 1554 1553 1553 1552 1552 1551 1551 1550 1550 1549 1549 1548 1547 1547 1546 1545 1544 1543 1541 1539 1538 1539 1539 1539 1538 1538 1538 1538 1538 1539 1539 1540 1540 1540 1541 1541 1542 1542 1542 1542 1543 1543 1542 1542 1542 1543 1541 1535 1534 1532 1527 1527 1527 1527 1527 1526 1525 1525 1524 1521 1521 1520 1518 1518 1510 1503 1506 1508 1507 1506 1506 1507 1506 1506 1505
1557 1557 1557 1556 1556 1556 1555 1555 1555 1554 1554 1554 1553 1553 1553 1552 1551 1551 1551 1550 1550 1549 1549 1548 1548 1547 1546 1545 1545 1544 1544 1542 1539 1538 1539 1539 1538 1538 1537 1537 1537 1537 1537 1538 1538 1539 1539 1540 1540 1541 1541 1541 1541 1541 1540 1539 1540 1540 1537 1533 1531 1532 1530 1524 1525 1527 1526 1526 1525 1524 1524 1522 1519 1519 1516 1517 1518 1504 1497 1504 1504 1503 1504 1504 1505 1504 1503 1502
1556 1556 1556 1556 1555 1555 1554 1554 1554 1553 1553 1553 1553 1552 1552 1551 1551 1550 1550 1549 1549 1549 1548 1548 1547 1547 1546 1545 1544 1543 1545 1543 1539 1538 1539 1538 1538 1537 1537 1536 1536 1536 1536 1536 1537 1537 1538 1538 1539 1540 1540 1539 1539 1539 1537 1536 1538 1537 1533 1530 1529 1530 1527 1523 1524 1525 1525 1525 1524 1523 1522 1520 1519 1515 1512 1513 1510 1498 1496 1502 1501 1500 1502 1501 1502 1500 1499 1498
1555 1555 1555 1554 1554 1554 1553 1553 1552 1552 1552 1552 1551 1551 1551 1550 1550 1549 1548 1548 1548 1547 1547 1547 1546 1546 1545 1544 1543 1542 1543 1541 1538 1538 1538 1537 1537 1536 1536 1536 1536 1535 1535 1536 1536 1536 1537 1537 1537 1538 1538 1538 1537 1536 1535 1535 1536 1535 1531 1528 1527 1527 1525 1522 1523 1523 1524 1523 1521 1522 1520 1518 1517 1514 1510 1507 1501 1494 1496 1499 1498 1498 1499 1498 1498 1496 1495 1495
1554 1554 1554 1553 1553 1553 1552 1552 1551 1551 1551 1551 1550 1550 1549 1549 1548 1547 1547 1547 1547 1547 1546 1546 1545 1545 1544 1543 1542 1541 1540 1538 1537 1537 1537 1537 1536 1536 1536 1535 1535 1535 1535 1535 1535 1536 1536 1536 1536 1537 1537 1536 1535 1534 1534 1534 1534 1534 1529 1526 1526 1525 1523 1521 1521 1521 1521 1521 1519 1521 1517 1513 1514 1513 1508 1500 1493 1491 1495 1496 1494 1495 1495 1494 1493 1492 1493 1492
1553 1553 1553 1552 1552 1551 1551 1550 1550 1550 1550 1549 1549 1548 1548 1547 1547 1546 1546 1546 1545 1545 1545 1545 1544 1544 1543 1542 1541 1539 1536 1536 1536 1536 1536 1536 1535 1535 1534 1534 1534 1533 1533 1534 1534 1535 1535 1534 1535 1535 1535 1534 1534 1533 1533 1534 1532 1529 1527 1525 1524 1523 1521 1520 1519 1518 1519 1518 1517 1518 1515 1510 1510 1513 1503 1491 1489 1490 1492 1493 1491 1492 1491 1490 1489 1489 1490 1489
1552 1551 1551 1551 1550 1550 1549 1549 1549 1548 1548 1548 1547 1547 1546 1546 1545 1545 1544 1544 1544 1543 1543 1544 1543 1543 1542 1540 1540 1536 1533 1535 1535 1535 1535 1534 1533 1533 1533 1533 1532 1532 1532 1532 1533 1533 1533 1533 1534 1535 1535 1533 1532 1532 1532 1532 1529 1526 1526 1525 1522 1521 1519 1517 1516 1515 1517 1515 1514 1515 1512 1507 1508 1512 1499 1484 1488 1490 1490 1490 1489 1489 1488 1487 1487 1487 1487 1487
1550 1550 1550 1549 1549 1548 1548 1547 1547 1547 1546 1546 1546 1545 1545 1544 1543 1543 1542 1542 1542 1542 1542 1542 1541 1541 1540 1539 1537 1532 1531 1533 1533 1533 1533 1532 1532 1531 1531 1531 1531 1531 1531 1530 1531 1532 1532 1533 1534 1534 1534 1533 1531 1531 1530 1528 1527 1526 1526 1523 1520 1520 1517 1513 1513 1513 1514 1512 1508 1510 1510 1506 1508 1509 1494 1482 1486 1489 1489 1488 1487 1486 1485 1485 1485 1484 1485 1483
1548 1548 1548 1548 1547 1547 1546 1546 1545 1545 1544 1544 1543 1543 1543 1542 1541 1540 1540 1540 1539 1539 1539 1540 1539 1538 1538 1536 1531 1528 1530 1531 1531 1531 1531 1530 1529 1529 1529 1529 1529 1529 1529 1529 1530 1530 1531 1532 1533 1533 1532 1532 1531 1530 1528 1527 1528 1526 1526 1524 1518 1519 1515 1507 1509 1510 1510 1509 1505 1509 1510 1506 1505 1498 1486 1482 1485 1486 1487 1486 1484 1484 1482 1482 1481 1481 1481 1480
1546 1546 1546 1546 1545 1545 1544 1543 1543 1542 1542 1542 1541 1541 1540 1539 1539 1538 1537 1538 1537 1537 1536 1537 1536 1536 1536 1531 1524 1526 1529 1528 1528 1528 1528 1528 1527 1526 1526 1526 1527 1527 1527 1528 1528 1529 1530 1531 1531 1532 1531 1531 1530 1529 1527 1527 1528 1525 1526 1526 1521 1522 1515 1503 1507 1508 1507 1508 1504 1508 1510 1502 1497 1489 1481 1483 1484 1484 1485 1483 1481 1481 1480 1479 1478 1478 1477 1477
1544 1544 1543 1543 1543 1542 1542 1541 1541 1540 1539 1539 1538 1538 1538 1537 1536 1535 1535 1535 1535 1534 1534 1535 1534 1534 1533 1527 1522 1524 1525 1525 1525 1525 1525 1525 1524 1524 1523 1524 1525 1525 1526 1526 1527 1528 1528 1529 1531 1531 1530 1530 1529 1528 1528 1528 1528 1526 1527 1527 1527 1528 1514 1502 1507 1510 1507 1505 1502 1507 1509 1498 1490 1483 1480 1482 1483 1483 1482 1479 1478 1478 1478 1477 1476 1475 1473 1473
1542 1542 1542 1541 1541 1540 1539 1539 1538 1537 1537 1536 1535 1535 1535 1534 1534 1533 1532 1532 1532 1532 1532 1532 1532 1532 1530 1524 1521 1521 1521 1521 1520 1521 1523 1522 1521 1521 1520 1522 1523 1523 1524 1525 1525 1526 1527 1528 1529 1529 1529 1528 1528 1528 1530 1530 1528 1528 1529 1527 1529 1530 1518 1506 1505 1506 1504 1501 1501 1506 1505 1496 1487 1480 1478 1480 1481 1480 1479 1476 1475 1475 1475 1474 1473 1472 1471 1469
1541 1541 1540 1540 1539 1538 1538 1537 1536 1535 1535 1533 1533 1532 1531 1531 1530 1530 1529 1529 1529 1529 1529 1530 1529 1530 1529 1522 1519 1519 1518 1517 1517 1519 1519 1519 1519 1518 1518 1520 1520 1521 1522 1523 1524 1525 1526 1527 1528 1528 1528 1527 1528 1529 1531 1534 1531 1530 1531 1528 1527 1527 1523 1515 1503 1499 1500 1499 1500 1501 1497 1491 1484 1478 1476 1479 1479 1478 1477 1474 1472 1472 1471 1470 1470 1469 1468 1465
1540 1539 1539 1538 1538 1537 1536 1535 1534 1533 1532 1531 1530 1529 1529 1528 1527 1527 1526 1526 1526 1526 1527 1527 1527 1528 1525 1520 1517 1515 1514 1514 1515 1516 1515 1515 1516 1516 1516 1517 1518 1519 1520 1521 1522 1523 1525 1526 1527 1527 1527 1526 1527 1529 1535 1540 1534 1530 1531 1530 1528 1525 1522 1518 1505 1496 1497 1498 1498 1498 1495 1488 1480 1477 1477 1477 1477 1476 1475 1472 1469 1469 1467 1466 1466 1465 1463 1461
1539 1539 1538 1537 1537 1536 1535 1533 1533 1531 1530 1530 1528 1527 1526 1525 1524 1524 1523 1523 1523 1524 1525 1525 1526 1528 1522 1515 1514 1511 1511 1512 1512 1512 1512 1512 1513 1513 1514 1515 1516 1517 1519 1520 1521 1522 1524 1525 1526 1527 1527 1526 1526 1529 1534 1535 1527 1523 1524 1524 1524 1523 1521 1519 1509 1496 1494 1495 1496 1499 1496 1487 1481 1479 1477 1475 1476 1474 1472 1469 1466 1464 1464 1462 1461 1460 1457 1455
1539 1538 1537 1537 1536 1535 1534 1532 1532 1530 1529 1528 1527 1525 1524 1523 1522 1521 1520 1520 1521 1522 1522 1520 1521 1522 1516 1510 1511 1511 1510 1511 1510 1510 1510 1509 1510 1511 1512 1514 1515 1516 1518 1519 1519 1520 1522 1523 1526 1528 1525 1521 1521 1525 1524 1519 1515 1516 1518 1518 1518 1518 1517 1514 1506 1496 1495 1495 1496 1498 1491 1483 1482 1480 1476 1472 1473 1472 1468 1465 1462 1460 1459 1457 1456 1453 1450 1448
1538 1537 1537 1536 1535 1534 1533 1532 1531 1529 1528 1527 1526 1524 1523 1522 1521 1520 1519 1518 1518 1517 1516 1515 1514 1512 1510 1509 1510 1510 1509 1509 1508 1508 1507 1508 1508 1509 1511 1513 1514 1516 1516 1517 1518 1519 1520 1522 1524 1522 1515 1511 1514 1516 1513 1509 1512 1516 1519 1519 1518 1518 1512 1507 1502 1495 1497 1496 1490 1490 1484 1478 1478 1476 1473 1470 1469 1470 1465 1460 1456 1455 1454 1453 1451 1447 1443 1442
1537 1537 1536 1536 1535 1534 1533 1532 1531 1529 1528 1526 1525 1524 1523 1524 1523 1521 1519 1516 1514 1514 1512 1512 1511 1509 1507 1508 1508 1507 1507 1506 1505 1505 1505 1507 1507 1508 1510 1511 1514 1515 1515 1516 1518 1519 1519 1520 1519 1511 1504 1505 1510 1511 1511 1512 1515 1517 1519 1519 1518 1519 1509 1501 1500 1493 1496 1497 1487 1485 1482 1474 1474 1471 1469 1468 1466 1465 1460 1455 1451 1448 1449 1448 1446 1441 1436 1434
1537 1536 1536 1536 1535 1534 1533 1532 1531 1530 1528 1527 1525 1524 1524 1524 1523 1522 1520 1515 1511 1510 1509 1507 1506 1504 1502 1504 1504 1505 1506 1504 1502 1502 1504 1505 1506 1507 1508 1510 1512 1512 1514 1516 1517 1518 1520 1518 1513 1505 1503 1507 1509 1510 1513 1515 1517 1517 1519 1521 1518 1516 1507 1496 1496 1493 1496 1497 1487 1485 1480 1468 1468 1467 1464 1464 1459 1456 1454 1451 1448 1444 1444 1443 1439 1435 1431 1428
1536 1535 1535 1535 1534 1534 1533 1532 1531 1530 1529 1527 1526 1525 1524 1523 1522 1521 1520 1517 1508 1504 1503 1501 1499 1497 1497 1499 1499 1501 1502 1500 1499 1499 1502 1504 1504 1506 1507 1508 1511 1512 1514 1514 1512 1514 1515 1512 1506 1504 1507 1510 1509 1510 1514 1514 1515 1516 1516 1518 1513 1511 1507 1496 1492 1493 1496 1496 1488 1486 1477 1461 1463 1462 1457 1457 1450 1447 1449 1446 1444 1442 1438 1435 1431 1429 1428 1424
1534 1534 1534 1534 1534 1534 1533 1533 1531 1530 1529 1527 1526 1525 1524 1523 1522 1520 1519 1515 1507 1500 1496 1493 1493 1492 1492 1494 1495 1497 1497 1497 1498 1497 1499 1501 1503 1506 1505 1506 1510 1512 1511 1508 1507 1505 1504 1502 1502 1503 1507 1509 1509 1510 1513 1513 1511 1508 1509 1513 1507 1502 1503 1497 1494 1495 1496 1495 1490 1489 1474 1447 1447 1454 1448 1446 1444 1442 1444 1442 1440 1436 1430 1427 1423 1423 1424 1421
1533 1534 1533 1533 1533 1532 1532 1532 1531 1531 1529 1528 1527 1526 1524 1523 1521 1520 1518 1514 1505 1496 1491 1489 1490 1489 1489 1491 1492 1494 1495 1495 1495 1495 1497 1498 1500 1502 1503 1505 1506 1506 1506 1506 1508 1504 1500 1500 1500 1502 1505 1507 1509 1508 1511 1512 1506 1500 1502 1504 1497 1494 1498 1497 1499 1501 1500 1497 1492 1494 1481 1443 1432 1446 1444 1439 1441 1441 1439 1438 1435 1428 1421 1421 1421 1419 1418 1417
1531 1531 1531 1532 1531 1531 1532 1531 1530 1531 1528 1528 1528 1526 1525 1523 1522 1520 1519 1517 1506 1492 1488 1488 1488 1487 1487 1489 1491 1493 1495 1494 1491 1493 1495 1496 1497 1499 1501 1502 1501 1501 1502 1504 1507 1503 1498 1497 1497 1499 1502 1504 1509 1510 1506 1507 1504 1498 1495 1494 1491 1494 1498 1498 1501 1504 1501 1498 1494 1496 1494 1465 1435 1435 1439 1437 1438 1438 1434 1433 1430 1421 1416 1419 1420 1415 1413 1413
1528 1529 1529 1529 1529 1530 1530 1529 1530 1529 1528 1529 1527 1526 1526 1522 1523 1521 1518 1520 1506 1486 1485 1487 1487 1487 1486 1488 1489 1491 1494 1491 1489 1491 1492 1494 1496 1497 1498 1498 1498 1498 1498 1503 1504 1497 1493 1494 1495 1497 1499 1503 1509 1505 1496 1500 1504 1497 1490 1488 1489 1492 1496 1497 1501 1504 1502 1498 1497 1494 1496 1490 1455 1428 1431 1433 1432 1434 1431 1428 1423 1417 1416 1417 1417 1413 1411 1412
1526 1527 1527 1528 1528 1528 1528 1528 1529 1528 1528 1528 1526 1527 1525 1523 1525 1520 1524 1529 1503 1480 1483 1485 1485 1486 1485 1487 1488 1488 1490 1489 1489 1491 1490 1493 1494 1495 1496 1495 1496 1496 1496 1500 1498 1491 1489 1491 1493 1495 1499 1502 1499 1492 1488 1496 1499 1492 1490 1491 1490 1492 1494 1497 1498 1501 1506 1501 1498 1495 1493 1497 1468 1428 1429 1435 1433 1434 1428 1421 1418 1415 1417 1415 1412 1412 1410 1411
1524 1524 1525 1526 1525 1526 1526 1526 1527 1527 1527 1527 1527 1527 1524 1525 1524 1520 1533 1532 1495 1477 1485 1484 1484 1487 1485 1487 1488 1487 1488 1488 1489 1490 1490 1492 1493 1494 1496 1494 1495 1495 1494 1495 1491 1487 1488 1488 1489 1492 1495 1493 1487 1486 1488 1492 1492 1490 1493 1493 1493 1496 1495 1499 1497 1496 1504 1498 1492 1496 1492 1491 1465 1426 1429 1439 1434 1432 1423 1418 1418 1415 1416 1413 1410 1410 1409 1410
1521 1522 1523 1523 1523 1523 1523 1524 1526 1526 1526 1527 1526 1525 1525 1524 1524 1528 1536 1520 1489 1482 1487 1483 1485 1487 1486 1488 1489 1488 1489 1488 1488 1490 1490 1492 1492 1493 1494 1494 1495 1494 1494 1494 1489 1485 1486 1488 1489 1488 1486 1483 1483 1489 1490 1490 1491 1491 1494 1492 1493 1497 1495 1500 1500 1495 1502 1494 1483 1485 1483 1487 1468 1428 1426 1433 1426 1424 1419 1417 1417 1414 1413 1410 1407 1408 1407 1408
1518 1519 1520 1520 1520 1521 1521 1522 1524 1525 1525 1525 1525 1525 1525 1524 1527 1533 1524 1500 1489 1488 1484 1485 1489 1488 1488 1489 1489 1488 1488 1488 1488 1489 1489 1491 1492 1493 1494 1493 1494 1496 1495 1493 1488 1484 1485 1486 1485 1480 1478 1481 1483 1487 1489 1491 1492 1491 1493 1493 1493 1496 1495 1500 1502 1501 1504 1489 1474 1475 1476 1484 1467 1428 1423 1428 1422 1422 1420 1416 1415 1413 1412 1408 1406 1407 1407 1406
1515 1516 1517 1517 1517 1518 1520 1520 1521 1523 1523 1523 1525 1524 1524 1528 1529 1523 1507 1493 1493 1489 1483 1488 1489 1488 1491 1491 1489 1488 1488 1487 1487 1488 1489 1491 1492 1491 1492 1490 1491 1493 1492 1489 1485 1481 1478 1477 1477 1475 1476 1478 1479 1484 1490 1491 1491 1492 1495 1496 1499 1502 1501 1500 1501 1503 1500 1482 1472 1478 1481 1477 1450 1421 1423 1425 1418 1419 1417 1415 1414 1411 1411 1407 1406 1407 1405 1405
1512 1513 1513 1514 1514 1514 1517 1518 1519 1521 1521 1522 1524 1523 1526 1531 1519 1504 1500 1498 1493 1486 1484 1488 1487 1488 1491 1489 1487 1488 1488 1487 1486 1488 1489 1491 1494 1490 1489 1489 1488 1488 1487 1488 1487 1480 1473 1470 1473 1476 1474 1473 1475 1480 1485 1483 1486 1492 1491 1493 1500 1503 1503 1501 1499 1501 1492 1476 1475 1484 1482 1467 1439 1420 1420 1416 1412 1413 1413 1414 1413 1410 1410 1407 1406 1406 1405 1405
1509 1509 1510 1510 1511 1511 1513 1516 1517 1518 1519 1521 1522 1524 1528 1523 1504 1494 1499 1497 1489 1485 1486 1488 1488 1489 1489 1487 1486 1486 1486 1484 1483 1487 1489 1491 1494 1490 1487 1488 1487 1487 1487 1490 1489 1484 1480 1471 1467 1469 1466 1466 1469 1469 1469 1471 1480 1485 1481 1483 1488 1487 1489 1490 1485 1481 1473 1466 1476 1486 1477 1455 1434 1420 1416 1412 1411 1412 1412 1412 1411 1409 1409 1408 1407 1406 1405 1404
1506 1506 1506 1506 1507 1508 1510 1513 1514 1516 1518 1518 1521 1525 1522 1509 1496 1495 1496 1492 1490 1488 1486 1487 1488 1489 1488 1487 1486 1484 1483 1483 1484 1488 1488 1490 1490 1486 1483 1482 1484 1486 1488 1490 1487 1484 1484 1471 1460 1462 1461 1462 1465 1462 1463 1469 1475 1480 1479 1481 1479 1473 1472 1474 1468 1464 1465 1469 1472 1474 1463 1443 1426 1415 1412 1414 1413 1411 1411 1410 1410 1409 1408 1408 1408 1406 1405 1404
1503 1503 1503 1502 1503 1506 1508 1510 1512 1514 1515 1516 1520 1519 1507 1495 1492 1493 1490 1487 1488 1487 1487 1489 1487 1488 1488 1485 1485 1485 1482 1484 1486 1487 1487 1489 1487 1484 1482 1480 1480 1481 1481 1483 1480 1479 1480 1469 1460 1464 1465 1464 1466 1464 1465 1467 1469 1476 1481 1475 1468 1466 1465 1467 1466 1464 1471 1475 1461 1451 1447 1435 1425 1414 1407 1411 1411 1408 1409 1409 1409 1409 1408 1408 1407 1405 1406 1406
1499 1499 1499 1498 1500 1504 1506 1507 1510 1512 1512 1514 1515 1507 1494 1488 1487 1487 1485 1485 1485 1485 1487 1490 1487 1485 1487 1484 1483 1484 1483 1484 1487 1486 1487 1488 1483 1480 1480 1477 1477 1477 1475 1476 1476 1476 1478 1470 1460 1463 1466 1466 1467 1467 1466 1466 1467 1472 1474 1467 1464 1467 1467 1470 1476 1472 1473 1471 1452 1440 1436 1431 1431 1421 1407 1409 1410 1406 1408 1409 1409 1408 1408 1408 1406 1405 1407 1406
1496 1496 1495 1494 1498 1501 1503 1505 1507 1508 1510 1511 1507 1496 1488 1486 1483 1482 1483 1483 1483 1484 1486 1489 1485 1482 1484 1484 1481 1481 1481 1483 1485 1486 1488 1487 1481 1475 1475 1473 1473 1474 1472 1474 1478 1476 1478 1477 1465 1461 1466 1468 1467 1468 1467 1467 1467 1468 1468 1466 1467 1470 1468 1470 1477 1474 1469 1465 1452 1442 1435 1430 1430 1420 1408 1409 1409 1405 1406 1409 1408 1406 1407 1408 1406 1404 1404 1403
1494 1495 1492 1491 1494 1497 1499 1502 1503 1505 1507 1505 1500 1492 1485 1483 1481 1481 1482 1481 1483 1484 1485 1485 1483 1481 1481 1481 1479 1479 1480 1481 1482 1484 1484 1484 1479 1472 1470 1471 1471 1472 1470 1473 1477 1475 1477 1483 1475 1463 1466 1470 1468 1468 1468 1466 1467 1468 1468 1467 1468 1469 1467 1466 1467 1465 1461 1457 1449 1443 1436 1427 1419 1411 1407 1408 1406 1405 1407 1407 1408 1408 1408 1408 1406 1404 1402 1401
1493 1493 1490 1489 1492 1493 1495 1499 1500 1502 1501 1496 1491 1487 1482 1481 1480 1479 1480 1481 1481 1483 1483 1481 1481 1481 1479 1477 1477 1477 1478 1479 1480 1481 1480 1478 1475 1469 1467 1469 1469 1470 1471 1472 1475 1475 1476 1484 1481 1470 1467 1470 1467 1466 1465 1463 1464 1467 1468 1468 1467 1466 1465 1465 1463 1458 1456 1454 1449 1446 1439 1427 1414 1407 1406 1406 1405 1407 1408 1407 1407 1407 1406 1405 1404 1403 1402 1402
1491 1492 1488 1487 1490 1491 1493 1497 1496 1495 1493 1488 1484 1481 1480 1480 1478 1477 1478 1480 1480 1479 1480 1479 1479 1479 1477 1476 1476 1476 1478 1478 1477 1479 1477 1474 1473 1470 1466 1465 1466 1467 1471 1472 1473 1473 1474 1479 1482 1478 1473 1469 1464 1461 1462 1462 1462 1464 1466 1465 1464 1463 1465 1468 1464 1455 1453 1453 1449 1447 1442 1430 1418 1410 1405 1406 1408 1408 1408 1407 1406 1406 1405 1404 1404 1405 1405 1405
1490 1490 1486 1486 1488 1489 1490 1492 1490 1489 1487 1483 1479 1478 1478 1477 1476 1476 1476 1477 1478 1477 1478 1478 1476 1475 1475 1474 1474 1474 1476 1476 1474 1476 1474 1470 1469 1468 1463 1463 1464 1464 1467 1470 1469 1467 1470 1476 1480 1476 1471 1465 1459 1456 1458 1459 1459 1462 1462 1461 1460 1460 1462 1466 1462 1453 1450 1450 1445 1445 1442 1429 1418 1411 1404 1403 1406 1406 1406 1407 1406 1406 1407 1406 1406 1407 1407 1406
1487 1486 1485 1486 1487 1487 1488 1488 1486 1485 1482 1478 1476 1476 1476 1476 1474 1474 1474 1475 1476 1476 1476 1475 1474 1473 1472 1471 1471 1472 1473 1472 1470 1469 1469 1467 1465 1463 1462 1462 1463 1465 1466 1467 1466 1464 1468 1475 1474 1467 1462 1461 1457 1454 1454 1456 1459 1461 1457 1454 1454 1451 1449 1449 1448 1445 1445 1445 1444 1443 1438 1424 1414 1410 1405 1402 1402 1402 1401 1402 1404 1405 1405 1405 1406 1405 1404 1404
1486 1484 1484 1485 1487 1486 1485 1482 1481 1480 1479 1477 1476 1476 1475 1474 1473 1472 1473 1473 1474 1473 1473 1472 1471 1470 1469 1468 1468 1468 1469 1470 1466 1462 1463 1464 1461 1459 1460 1461 1462 1463 1464 1463 1462 1463 1465 1466 1466 1466 1464 1460 1456 1454 1452 1452 1456 1455 1449 1446 1444 1442 1442 1441 1442 1445 1442 1439 1440 1439 1431 1420 1414 1411 1409 1405 1401 1398 1396 1397 1400 1403 1402 1402 1403 1403 1402 1402
1486 1484 1482 1483 1485 1484 1480 1477 1477 1477 1477 1477 1476 1474 1474 1472 1470 1469 1470 1471 1471 1470 1470 1469 1468 1467 1467 1467 1467 1466 1466 1468 1466 1462 1460 1461 1459 1458 1458 1460 1460 1460 1460 1459 1459 1460 1461 1458 1459 1464 1465 1460 1453 1448 1444 1444 1447 1447 1443 1441 1440 1439 1440 1440 1441 1444 1439 1431 1431 1430 1423 1417 1414 1413 1412 1408 1403 1398 1394 1392 1395 1399 1401 1399 1399 1401 1401 1402
1486 1485 1482 1481 1482 1481 1477 1475 1476 1476 1476 1476 1474 1472 1472 1470 1467 1466 1467 1468 1468 1467 1468 1468 1467 1468 1468 1468 1469 1468 1466 1466 1466 1463 1460 1459 1459 1458 1459 1460 1460 1459 1459 1459 1460 1461 1462 1457 1454 1455 1454 1450 1444 1438 1436 1438 1441 1441 1440 1438 1436 1436 1436 1436 1436 1436 1432 1426 1422 1419 1417 1416 1415 1415 1412 1408 1404 1401 1396 1390 1388 1394 1399 1399 1400 1401 1402 1402
1486 1485 1482 1481 1480 1478 1476 1474 1475 1474 1474 1474 1472 1469 1468 1467 1466 1465 1465 1465 1464 1465 1466 1466 1466 1467 1466 1466 1467 1466 1463 1463 1464 1463 1461 1461 1460 1460 1459 1459 1460 1460 1458 1459 1461 1463 1463 1459 1452 1450 1446 1443 1440 1436 1436 1437 1437 1438 1438 1437 1437 1437 1435 1436 1433 1427 1425 1424 1415 1411 1413 1413 1412 1413 1410 1405 1403 1400 1396 1392 1389 1392 1398 1400 1400 1401 1401 1402
1485 1483 1480 1481 1480 1477 1475 1474 1474 1474 1473 1472 1470 1467 1466 1466 1465 1465 1464 1463 1462 1463 1465 1464 1463 1463 1463 1463 1464 1464 1463 1462 1462 1461 1462 1465 1466 1464 1461 1460 1460 1461 1460 1461 1461 1462 1463 1458 1451 1448 1446 1443 1442 1439 1436 1435 1433 1434 1437 1438 1438 1437 1435 1434 1427 1421 1422 1420 1411 1408 1410 1406 1404 1406 1404 1401 1399 1397 1396 1396 1395 1397 1400 1401 1402 1402 1401 1402
1483 1481 1479 1480 1479 1477 1475 1475 1475 1474 1473 1472 1469 1467 1465 1464 1463 1462 1462 1463 1462 1463 1462 1462 1461 1462 1462 1463 1463 1464 1464 1463 1463 1464 1466 1470 1471 1469 1467 1464 1461 1460 1462 1464 1463 1462 1462 1455 1448 1447 1446 1443 1442 1439 1437 1436 1434 1433 1434 1435 1435 1433 1430 1426 1419 1416 1417 1413 1407 1408 1408 1402 1402 1404 1402 1401 1402 1401 1401 1401 1402 1404 1405 1405 1405 1404 1404 1404
1481 1481 1480 1480 1479 1477 1476 1476 1475 1474 1473 1472 1469 1466 1463 1462 1461 1460 1461 1462 1462 1462 1460 1461 1462 1463 1464 1464 1465 1465 1465 1464 1465 1466 1469 1472 1471 1470 1471 1468 1464 1462 1463 1464 1463 1461 1460 1454 1448 1450 1450 1445 1441 1439 1438 1438 1437 1434 1431 1430 1429 1427 1423 1419 1416 1415 1414 1409 1405 1406 1403 1402 1407 1410 1409 1409 1409 1407 1407 1408 1409 1410 1409 1408 1408 1407 1407 1406
1481 1481 1482 1482 1479 1476 1476 1476 1476 1475 1473 1470 1467 1464 1462 1462 1461 1461 1460 1459 1460 1461 1462 1464 1465 1465 1464 1465 1466 1466 1466 1466 1468 1468 1469 1471 1471 1470 1471 1469 1467 1466 1464 1462 1462 1461 1461 1457 1453 1454 1453 1445 1439 1438 1437 1436 1436 1435 1431 1427 1424 1421 1418 1416 1414 1412 1409 1406 1403 1402 1404 1412 1420 1420 1415 1413 1413 1413 1413 1414 1414 1412 1411 1410 1410 1409 1409 1407
1480 1480 1481 1482 1480 1476 1476 1476 1476 1476 1472 1467 1466 1465 1464 1463 1463 1463 1462 1460 1459 1462 1463 1465 1465 1465 1465 1465 1465 1466 1466 1467 1468 1468 1468 1469 1467 1467 1467 1466 1466 1467 1464 1461 1460 1460 1460 1458 1457 1457 1451 1442 1437 1435 1434 1436 1437 1431 1425 1420 1415 1413 1411 1410 1409 1410 1412 1412 1412 1413 1421 1429 1429 1424 1419 1417 1417 1417 1417 1417 1416 1414 1413 1412 1411 1410 1410 1408